Time,TemperatureF,DewpointF,PressureIn,WindDirection,WindDirectionDegrees,WindSpeedMPH,WindSpeedGustMPH,Humidity,HourlyPrecipIn,Conditions,Clouds,dailyrainin,SoftwareType,DateUTC
2013-01-03 00:00:00,17.0,7.0,30.22,NW,321,0.0,6.0,64,0.00,,,0.00,HR-IXPWINDi_r2_v1.2.,2013-01-03 05:00:00,
2013-01-03 00:05:00,16.6,6.3,30.22,NNW,345,0.0,6.0,63,0.00,,,0.00,HR-IXPWINDi_r2_v1.2.,2013-01-03 05:05:00,
2013-01-03 00:10:00,16.3,6.3,30.22,North,349,1.0,5.0,64,0.00,,,0.00,HR-IXPWINDi_r2_v1.2.,2013-01-03 05:10:00,
2013-01-03 00:15:00,15.9,6.3,30.22,NW,317,0.0,5.0,65,0.00,,,0.00,HR-IXPWINDi_r2_v1.2.,2013-01-03 05:15:00,
2013-01-03 00:21:00,15.6,6.0,30.22,North,349,2.0,4.0,65,0.00,,,0.00,HR-IXPWINDi_r2_v1.2.,2013-01-03 05:21:00,
2013-01-03 00:26:00,15.3,6.1,30.22,NNW,337,4.0,6.0,66,0.00,,,0.00,HR-IXPWINDi_r2_v1.2.,2013-01-03 05:26:00,
2013-01-03 00:31:00,14.9,5.7,30.23,North,354,1.0,6.0,66,0.00,,,0.00,HR-IXPWINDi_r2_v1.2.,2013-01-03 05:31:00,
2013-01-03 00:36:00,14.6,6.0,30.24,East,101,3.0,6.0,68,0.00,,,0.00,HR-IXPWINDi_r2_v1.2.,2013-01-03 05:36:00,
2013-01-03 00:42:00,14.4,5.8,30.24,NNW,340,3.0,5.0,68,0.00,,,0.00,HR-IXPWINDi_r2_v1.2.,2013-01-03 05:42:00,
2013-01-03 00:47:00,13.9,5.4,30.24,North,349,2.0,6.0,68,0.00,,,0.00,HR-IXPWINDi_r2_v1.2.,2013-01-03 05:47:00,
2013-01-03 00:52:00,13.3,4.8,30.24,NNW,327,2.0,6.0,68,0.00,,,0.00,HR-IXPWINDi_r2_v1.2.,2013-01-03 05:52:00,
2013-01-03 00:57:00,12.7,4.5,30.24,SE,132,1.0,6.0,69,0.00,,,0.00,HR-IXPWINDi_r2_v1.2.,2013-01-03 05:57:00,
2013-01-03 01:02:00,12.3,4.5,30.24,East,100,3.0,7.0,70,0.00,,,0.00,HR-IXPWINDi_r2_v1.2.,2013-01-03 06:02:00,
2013-01-03 01:08:00,11.9,4.1,30.24,NNW,345,3.0,7.0,70,0.00,,,0.00,HR-IXPWINDi_r2_v1.2.,2013-01-03 06:08:00,
2013-01-03 01:13:00,11.6,4.1,30.25,North,354,1.0,6.0,71,0.00,,,0.00,HR-IXPWINDi_r2_v1.2.,2013-01-03 06:13:00,
2013-01-03 01:18:00,11.1,3.6,30.25,North,10,3.0,6.0,71,0.00,,,0.00,HR-IXPWINDi_r2_v1.2.,2013-01-03 06:18:00,
2013-01-03 01:23:00,10.7,3.2,30.25,NNW,341,2.0,8.0,71,0.00,,,0.00,HR-IXPWINDi_r2_v1.2.,2013-01-03 06:23:00,
2013-01-03 01:28:00,10.2,3.1,30.25,NNW,345,2.0,8.0,72,0.00,,,0.00,HR-IXPWINDi_r2_v1.2.,2013-01-03 06:28:00,
2013-01-03 01:34:00,9.8,2.7,30.25,NNE,20,2.0,8.0,72,0.00,,,0.00,HR-IXPWINDi_r2_v1.2.,2013-01-03 06:34:00,
2013-01-03 01:39:00,9.6,2.8,30.25,NW,314,1.0,8.0,73,0.00,,,0.00,HR-IXPWINDi_r2_v1.2.,2013-01-03 06:39:00,
2013-01-03 01:44:00,9.3,2.5,30.25,North,349,2.0,9.0,73,0.00,,,0.00,HR-IXPWINDi_r2_v1.2.,2013-01-03 06:44:00,
2013-01-03 01:49:00,9.0,2.2,30.26,NNW,345,3.0,9.0,73,0.00,,,0.00,HR-IXPWINDi_r2_v1.2.,2013-01-03 06:49:00,
2013-01-03 01:54:00,8.8,2.3,30.26,NE,43,4.0,8.0,74,0.00,,,0.00,HR-IXPWINDi_r2_v1.2.,2013-01-03 06:54:00,
2013-01-03 01:59:00,8.5,1.7,30.26,North,349,4.0,10.0,73,0.00,,,0.00,HR-IXPWINDi_r2_v1.2.,2013-01-03 06:59:00,
2013-01-03 02:04:00,8.2,1.4,30.27,NNW,347,3.0,10.0,73,0.00,,,0.00,HR-IXPWINDi_r2_v1.2.,2013-01-03 07:04:00,
2013-01-03 02:10:00,7.9,1.1,30.27,North,1,2.0,10.0,73,0.00,,,0.00,HR-IXPWINDi_r2_v1.2.,2013-01-03 07:10:00,
2013-01-03 02:15:00,7.7,1.2,30.27,SSE,156,3.0,9.0,74,0.00,,,0.00,HR-IXPWINDi_r2_v1.2.,2013-01-03 07:15:00,
2013-01-03 02:20:00,7.5,1.1,30.26,NNW,342,2.0,10.0,74,0.00,,,0.00,HR-IXPWINDi_r2_v1.2.,2013-01-03 07:20:00,
2013-01-03 02:25:00,7.3,0.9,30.27,NW,304,3.0,10.0,74,0.00,,,0.00,HR-IXPWINDi_r2_v1.2.,2013-01-03 07:25:00,
2013-01-03 02:31:00,7.1,0.7,30.27,NNW,328,4.0,8.0,74,0.00,,,0.00,HR-IXPWINDi_r2_v1.2.,2013-01-03 07:31:00,
2013-01-03 02:36:00,6.9,0.5,30.27,NNW,342,3.0,7.0,74,0.00,,,0.00,HR-IXPWINDi_r2_v1.2.,2013-01-03 07:36:00,
2013-01-03 02:41:00,6.8,0.4,30.27,SW,223,2.0,7.0,74,0.00,,,0.00,HR-IXPWINDi_r2_v1.2.,2013-01-03 07:41:00,
2013-01-03 02:46:00,6.6,0.2,30.26,North,1,4.0,7.0,74,0.00,,,0.00,HR-IXPWINDi_r2_v1.2.,2013-01-03 07:46:00,
2013-01-03 02:51:00,6.4,0.0,30.26,NW,323,2.0,7.0,74,0.00,,,0.00,HR-IXPWINDi_r2_v1.2.,2013-01-03 07:51:00,
2013-01-03 02:57:00,6.3,0.2,30.26,NW,320,6.0,8.0,75,0.00,,,0.00,HR-IXPWINDi_r2_v1.2.,2013-01-03 07:57:00,
2013-01-03 03:02:00,6.1,0.0,30.26,North,1,3.0,8.0,75,0.00,,,0.00,HR-IXPWINDi_r2_v1.2.,2013-01-03 08:02:00,
2013-01-03 03:07:00,5.9,0.0,30.26,NNW,340,2.0,8.0,75,0.00,,,0.00,HR-IXPWINDi_r2_v1.2.,2013-01-03 08:07:00,
2013-01-03 03:12:00,5.8,-0.1,30.26,SSE,163,1.0,8.0,75,0.00,,,0.00,HR-IXPWINDi_r2_v1.2.,2013-01-03 08:12:00,
2013-01-03 03:17:00,5.6,-0.3,30.26,NNW,337,1.0,8.0,75,0.00,,,0.00,HR-IXPWINDi_r2_v1.2.,2013-01-03 08:17:00,
2013-01-03 03:23:00,5.4,-0.5,30.26,NNW,335,5.0,8.0,75,0.00,,,0.00,HR-IXPWINDi_r2_v1.2.,2013-01-03 08:23:00,
2013-01-03 03:28:00,5.4,-0.5,30.27,SSE,150,1.0,8.0,75,0.00,,,0.00,HR-IXPWINDi_r2_v1.2.,2013-01-03 08:28:00,
2013-01-03 03:33:00,5.2,-0.4,30.27,NW,323,2.0,8.0,76,0.00,,,0.00,HR-IXPWINDi_r2_v1.2.,2013-01-03 08:33:00,
2013-01-03 03:38:00,5.1,-0.5,30.27,NNW,328,2.0,10.0,76,0.00,,,0.00,HR-IXPWINDi_r2_v1.2.,2013-01-03 08:38:00,
2013-01-03 03:43:00,4.9,-0.7,30.27,NNW,332,2.0,10.0,76,0.00,,,0.00,HR-IXPWINDi_r2_v1.2.,2013-01-03 08:43:00,
2013-01-03 03:48:00,4.8,-0.8,30.27,NNW,332,2.0,7.0,76,0.00,,,0.00,HR-IXPWINDi_r2_v1.2.,2013-01-03 08:48:00,
2013-01-03 03:54:00,4.8,-0.8,30.27,North,351,0.0,7.0,76,0.00,,,0.00,HR-IXPWINDi_r2_v1.2.,2013-01-03 08:54:00,
2013-01-03 03:59:00,4.6,-0.7,30.27,North,8,0.0,4.0,77,0.00,,,0.00,HR-IXPWINDi_r2_v1.2.,2013-01-03 08:59:00,
2013-01-03 04:04:00,4.6,-0.7,30.27,North,349,2.0,4.0,77,0.00,,,0.00,HR-IXPWINDi_r2_v1.2.,2013-01-03 09:04:00,
2013-01-03 04:09:00,4.5,-0.8,30.27,ESE,117,1.0,4.0,77,0.00,,,0.00,HR-IXPWINDi_r2_v1.2.,2013-01-03 09:09:00,
2013-01-03 04:14:00,4.3,-1.3,30.27,NW,325,4.0,7.0,76,0.00,,,0.00,HR-IXPWINDi_r2_v1.2.,2013-01-03 09:14:00,
2013-01-03 04:20:00,4.2,-1.4,30.27,NNW,340,3.0,7.0,76,0.00,,,0.00,HR-IXPWINDi_r2_v1.2.,2013-01-03 09:20:00,
2013-01-03 04:25:00,4.0,-1.6,30.27,NW,318,1.0,6.0,76,0.00,,,0.00,HR-IXPWINDi_r2_v1.2.,2013-01-03 09:25:00,
2013-01-03 04:30:00,3.9,-1.7,30.27,ENE,77,4.0,5.0,76,0.00,,,0.00,HR-IXPWINDi_r2_v1.2.,2013-01-03 09:30:00,
2013-01-03 04:35:00,3.8,-1.5,30.27,NNW,342,2.0,4.0,77,0.00,,,0.00,HR-IXPWINDi_r2_v1.2.,2013-01-03 09:35:00,
2013-01-03 04:40:00,3.7,-1.8,30.27,NNW,328,5.0,5.0,76,0.00,,,0.00,HR-IXPWINDi_r2_v1.2.,2013-01-03 09:40:00,
2013-01-03 04:45:00,3.7,-1.8,30.27,North,356,2.0,6.0,76,0.00,,,0.00,HR-IXPWINDi_r2_v1.2.,2013-01-03 09:45:00,
2013-01-03 04:50:00,3.6,-1.9,30.27,NNW,340,1.0,6.0,76,0.00,,,0.00,HR-IXPWINDi_r2_v1.2.,2013-01-03 09:50:00,
2013-01-03 04:55:00,3.5,-2.0,30.27,East,93,3.0,6.0,76,0.00,,,0.00,HR-IXPWINDi_r2_v1.2.,2013-01-03 09:55:00,
2013-01-03 05:01:00,3.4,-2.1,30.27,NNW,340,0.0,6.0,76,0.00,,,0.00,HR-IXPWINDi_r2_v1.2.,2013-01-03 10:01:00,
2013-01-03 05:06:00,3.3,-2.2,30.27,NNW,333,1.0,4.0,76,0.00,,,0.00,HR-IXPWINDi_r2_v1.2.,2013-01-03 10:06:00,
2013-01-03 05:11:00,3.2,-2.1,30.27,NNW,344,0.0,3.0,77,0.00,,,0.00,HR-IXPWINDi_r2_v1.2.,2013-01-03 10:11:00,
2013-01-03 05:16:00,2.9,-2.3,30.27,NNW,344,0.0,2.0,77,0.00,,,0.00,HR-IXPWINDi_r2_v1.2.,2013-01-03 10:16:00,
2013-01-03 05:22:00,2.7,-2.3,30.27,NNW,344,0.0,0.0,78,0.00,,,0.00,HR-IXPWINDi_r2_v1.2.,2013-01-03 10:22:00,
2013-01-03 05:27:00,2.6,-2.4,30.28,NNW,344,0.0,0.0,78,0.00,,,0.00,HR-IXPWINDi_r2_v1.2.,2013-01-03 10:27:00,
2013-01-03 05:32:00,2.4,-2.3,30.28,SW,215,0.0,0.0,79,0.00,,,0.00,HR-IXPWINDi_r2_v1.2.,2013-01-03 10:32:00,
2013-01-03 05:37:00,2.2,-2.5,30.28,SW,214,0.0,1.0,79,0.00,,,0.00,HR-IXPWINDi_r2_v1.2.,2013-01-03 10:37:00,
2013-01-03 05:42:00,2.1,-2.6,30.27,SW,215,0.0,1.0,79,0.00,,,0.00,HR-IXPWINDi_r2_v1.2.,2013-01-03 10:42:00,
2013-01-03 05:47:00,1.9,-2.8,30.28,SW,214,0.0,1.0,79,0.00,,,0.00,HR-IXPWINDi_r2_v1.2.,2013-01-03 10:47:00,
2013-01-03 05:52:00,1.8,-2.6,30.28,SW,216,0.0,1.0,80,0.00,,,0.00,HR-IXPWINDi_r2_v1.2.,2013-01-03 10:52:00,
2013-01-03 05:58:00,1.8,-2.6,30.28,SW,214,0.0,1.0,80,0.00,,,0.00,HR-IXPWINDi_r2_v1.2.,2013-01-03 10:58:00,
2013-01-03 06:03:00,1.7,-2.7,30.28,SW,216,0.0,0.0,80,0.00,,,0.00,HR-IXPWINDi_r2_v1.2.,2013-01-03 11:03:00,
2013-01-03 06:08:00,1.6,-2.8,30.28,SW,214,0.0,0.0,80,0.00,,,0.00,HR-IXPWINDi_r2_v1.2.,2013-01-03 11:08:00,
2013-01-03 06:13:00,1.4,-3.0,30.28,SW,214,0.0,0.0,80,0.00,,,0.00,HR-IXPWINDi_r2_v1.2.,2013-01-03 11:13:00,
2013-01-03 06:19:00,1.3,-3.1,30.28,SW,215,0.0,0.0,80,0.00,,,0.00,HR-IXPWINDi_r2_v1.2.,2013-01-03 11:19:00,
2013-01-03 06:24:00,1.1,-3.3,30.29,SW,215,0.0,0.0,80,0.00,,,0.00,HR-IXPWINDi_r2_v1.2.,2013-01-03 11:24:00,
2013-01-03 06:29:00,1.1,-3.3,30.28,SW,216,0.0,0.0,80,0.00,,,0.00,HR-IXPWINDi_r2_v1.2.,2013-01-03 11:29:00,
2013-01-03 06:34:00,1.1,-3.3,30.29,SW,216,0.0,1.0,80,0.00,,,0.00,HR-IXPWINDi_r2_v1.2.,2013-01-03 11:34:00,
2013-01-03 06:39:00,1.1,-3.3,30.28,SW,216,0.0,1.0,80,0.00,,,0.00,HR-IXPWINDi_r2_v1.2.,2013-01-03 11:39:00,
2013-01-03 06:44:00,1.0,-3.4,30.28,SW,216,0.0,1.0,80,0.00,,,0.00,HR-IXPWINDi_r2_v1.2.,2013-01-03 11:44:00,
2013-01-03 06:50:00,0.9,-3.5,30.28,SW,216,0.0,0.0,80,0.00,,,0.00,HR-IXPWINDi_r2_v1.2.,2013-01-03 11:50:00,
2013-01-03 06:55:00,0.7,-3.7,30.28,SW,216,0.0,0.0,80,0.00,,,0.00,HR-IXPWINDi_r2_v1.2.,2013-01-03 11:55:00,
2013-01-03 07:00:00,0.6,-3.8,30.29,SW,216,0.0,0.0,80,0.00,,,0.00,HR-IXPWINDi_r2_v1.2.,2013-01-03 12:00:00,
2013-01-03 07:05:00,0.6,-3.8,30.29,WNW,302,0.0,1.0,80,0.00,,,0.00,HR-IXPWINDi_r2_v1.2.,2013-01-03 12:05:00,
2013-01-03 07:10:00,0.6,-3.8,30.29,WNW,302,0.0,1.0,80,0.00,,,0.00,HR-IXPWINDi_r2_v1.2.,2013-01-03 12:10:00,
2013-01-03 07:15:00,0.6,-3.8,30.28,WNW,302,0.0,1.0,80,0.00,,,0.00,HR-IXPWINDi_r2_v1.2.,2013-01-03 12:15:00,
2013-01-03 07:21:00,0.4,-4.0,30.28,WNW,302,0.0,1.0,80,0.00,,,0.00,HR-IXPWINDi_r2_v1.2.,2013-01-03 12:21:00,
2013-01-03 07:26:00,0.2,-4.2,30.28,WNW,302,0.0,0.0,80,0.00,,,0.00,HR-IXPWINDi_r2_v1.2.,2013-01-03 12:26:00,
2013-01-03 07:31:00,0.0,-4.4,30.28,WNW,302,0.0,0.0,80,0.00,,,0.00,HR-IXPWINDi_r2_v1.2.,2013-01-03 12:31:00,
2013-01-03 07:36:00,0.0,-4.1,30.28,WNW,302,0.0,0.0,81,0.00,,,0.00,HR-IXPWINDi_r2_v1.2.,2013-01-03 12:36:00,
2013-01-03 07:41:00,0.1,-4.0,30.28,WNW,302,0.0,0.0,81,0.00,,,0.00,HR-IXPWINDi_r2_v1.2.,2013-01-03 12:41:00,
2013-01-03 07:46:00,0.2,-3.9,30.28,WNW,302,0.0,0.0,81,0.00,,,0.00,HR-IXPWINDi_r2_v1.2.,2013-01-03 12:46:00,
2013-01-03 07:51:00,0.2,-3.9,30.28,WNW,302,0.0,0.0,81,0.00,,,0.00,HR-IXPWINDi_r2_v1.2.,2013-01-03 12:51:00,
2013-01-03 07:57:00,0.3,-3.8,30.28,WNW,302,0.0,1.0,81,0.00,,,0.00,HR-IXPWINDi_r2_v1.2.,2013-01-03 12:57:00,
2013-01-03 08:02:00,0.4,-3.7,30.28,WNW,302,0.0,1.0,81,0.00,,,0.00,HR-IXPWINDi_r2_v1.2.,2013-01-03 13:02:00,
2013-01-03 08:07:00,0.4,-3.7,30.28,WNW,302,0.0,0.0,81,0.00,,,0.00,HR-IXPWINDi_r2_v1.2.,2013-01-03 13:07:00,
2013-01-03 08:12:00,0.8,-3.3,30.28,WNW,295,0.0,0.0,81,0.00,,,0.00,HR-IXPWINDi_r2_v1.2.,2013-01-03 13:12:00,
2013-01-03 08:18:00,1.1,-3.0,30.27,West,278,0.0,1.0,81,0.00,,,0.00,HR-IXPWINDi_r2_v1.2.,2013-01-03 13:18:00,
2013-01-03 08:23:00,1.4,-3.0,30.27,NNW,337,0.0,2.0,80,0.00,,,0.00,HR-IXPWINDi_r2_v1.2.,2013-01-03 13:23:00,
2013-01-03 08:28:00,1.7,-3.0,30.27,NNE,15,0.0,2.0,79,0.00,,,0.00,HR-IXPWINDi_r2_v1.2.,2013-01-03 13:28:00,
2013-01-03 08:33:00,2.0,-2.9,30.27,NNW,348,0.0,3.0,78,0.00,,,0.00,HR-IXPWINDi_r2_v1.2.,2013-01-03 13:33:00,
2013-01-03 08:39:00,2.2,-3.0,30.27,NW,316,0.0,4.0,77,0.00,,,0.00,HR-IXPWINDi_r2_v1.2.,2013-01-03 13:39:00,
2013-01-03 08:44:00,2.5,-2.7,30.26,WNW,300,1.0,4.0,77,0.00,,,0.00,HR-IXPWINDi_r2_v1.2.,2013-01-03 13:44:00,
2013-01-03 08:49:00,2.6,-2.6,30.26,NNW,347,0.0,2.0,77,0.00,,,0.00,HR-IXPWINDi_r2_v1.2.,2013-01-03 13:49:00,
2013-01-03 08:54:00,2.8,-2.4,30.26,NNW,348,0.0,2.0,77,0.00,,,0.00,HR-IXPWINDi_r2_v1.2.,2013-01-03 13:54:00,
2013-01-03 08:59:00,2.9,-2.3,30.26,NNW,348,0.0,2.0,77,0.00,,,0.00,HR-IXPWINDi_r2_v1.2.,2013-01-03 13:59:00,
2013-01-03 09:04:00,3.1,-2.4,30.26,NNW,345,0.0,2.0,76,0.00,,,0.00,HR-IXPWINDi_r2_v1.2.,2013-01-03 14:04:00,
2013-01-03 09:09:00,3.3,-2.5,30.26,NNW,343,0.0,2.0,75,0.00,,,0.00,HR-IXPWINDi_r2_v1.2.,2013-01-03 14:09:00,
2013-01-03 09:14:00,3.6,-2.2,30.26,East,83,0.0,3.0,75,0.00,,,0.00,HR-IXPWINDi_r2_v1.2.,2013-01-03 14:14:00,
2013-01-03 09:20:00,3.9,-2.2,30.25,NNW,347,0.0,3.0,74,0.00,,,0.00,HR-IXPWINDi_r2_v1.2.,2013-01-03 14:20:00,
2013-01-03 09:25:00,4.3,-2.1,30.25,NNW,333,3.0,3.0,73,0.00,,,0.00,HR-IXPWINDi_r2_v1.2.,2013-01-03 14:25:00,
2013-01-03 09:30:00,4.6,-2.1,30.25,North,358,0.0,3.0,72,0.00,,,0.00,HR-IXPWINDi_r2_v1.2.,2013-01-03 14:30:00,
2013-01-03 09:35:00,5.0,-1.4,30.24,WNW,296,0.0,3.0,73,0.00,,,0.00,HR-IXPWINDi_r2_v1.2.,2013-01-03 14:35:00,
2013-01-03 09:41:00,5.2,-1.5,30.24,North,356,1.0,3.0,72,0.00,,,0.00,HR-IXPWINDi_r2_v1.2.,2013-01-03 14:41:00,
2013-01-03 09:46:00,5.3,-1.7,30.24,SSE,155,0.0,3.0,71,0.00,,,0.00,HR-IXPWINDi_r2_v1.2.,2013-01-03 14:46:00,
2013-01-03 09:51:00,5.7,-1.4,30.24,SSE,167,1.0,4.0,71,0.00,,,0.00,HR-IXPWINDi_r2_v1.2.,2013-01-03 14:51:00,
2013-01-03 09:57:00,5.9,-1.2,30.24,SSE,155,1.0,4.0,71,0.00,,,0.00,HR-IXPWINDi_r2_v1.2.,2013-01-03 14:57:00,
2013-01-03 10:02:00,6.3,-0.8,30.23,East,100,0.0,4.0,71,0.00,,,0.00,HR-IXPWINDi_r2_v1.2.,2013-01-03 15:02:00,
2013-01-03 10:07:00,6.6,-0.8,30.24,East,100,1.0,4.0,70,0.00,,,0.00,HR-IXPWINDi_r2_v1.2.,2013-01-03 15:07:00,
2013-01-03 10:12:00,6.9,-0.5,30.24,SE,139,1.0,4.0,70,0.00,,,0.00,HR-IXPWINDi_r2_v1.2.,2013-01-03 15:12:00,
2013-01-03 10:17:00,7.0,-0.7,30.24,North,1,0.0,4.0,69,0.00,,,0.00,HR-IXPWINDi_r2_v1.2.,2013-01-03 15:17:00,
2013-01-03 10:23:00,7.4,-0.3,30.24,South,176,2.0,2.0,69,0.00,,,0.00,HR-IXPWINDi_r2_v1.2.,2013-01-03 15:23:00,
2013-01-03 10:28:00,7.7,0.0,30.23,ESE,104,0.0,3.0,69,0.00,,,0.00,HR-IXPWINDi_r2_v1.2.,2013-01-03 15:28:00,
2013-01-03 10:33:00,8.1,0.0,30.23,North,1,1.0,4.0,68,0.00,,,0.00,HR-IXPWINDi_r2_v1.2.,2013-01-03 15:33:00,
2013-01-03 10:38:00,8.2,0.0,30.23,South,178,1.0,4.0,68,0.00,,,0.00,HR-IXPWINDi_r2_v1.2.,2013-01-03 15:38:00,
2013-01-03 10:43:00,8.4,0.1,30.23,SSE,157,3.0,3.0,68,0.00,,,0.00,HR-IXPWINDi_r2_v1.2.,2013-01-03 15:43:00,
2013-01-03 10:48:00,8.7,0.1,30.23,NNW,345,1.0,3.0,67,0.00,,,0.00,HR-IXPWINDi_r2_v1.2.,2013-01-03 15:48:00,
2013-01-03 10:53:00,8.7,0.1,30.22,NW,317,0.0,3.0,67,0.00,,,0.00,HR-IXPWINDi_r2_v1.2.,2013-01-03 15:53:00,
2013-01-03 10:58:00,9.4,1.1,30.22,East,92,1.0,3.0,68,0.00,,,0.00,HR-IXPWINDi_r2_v1.2.,2013-01-03 15:58:00,
2013-01-03 11:04:00,9.9,1.2,30.21,NW,310,1.0,4.0,67,0.00,,,0.00,HR-IXPWINDi_r2_v1.2.,2013-01-03 16:04:00,
2013-01-03 11:09:00,9.8,0.8,30.21,NNW,328,2.0,4.0,66,0.00,,,0.00,HR-IXPWINDi_r2_v1.2.,2013-01-03 16:09:00,
2013-01-03 11:14:00,10.0,1.3,30.21,North,351,0.0,4.0,67,0.00,,,0.00,HR-IXPWINDi_r2_v1.2.,2013-01-03 16:14:00,
2013-01-03 11:19:00,10.3,1.3,30.20,WNW,287,0.0,2.0,66,0.00,,,0.00,HR-IXPWINDi_r2_v1.2.,2013-01-03 16:19:00,
2013-01-03 11:24:00,10.9,2.2,30.20,ENE,67,2.0,2.0,67,0.00,,,0.00,HR-IXPWINDi_r2_v1.2.,2013-01-03 16:24:00,
2013-01-03 11:30:00,11.7,2.3,30.19,South,178,0.0,2.0,65,0.00,,,0.00,HR-IXPWINDi_r2_v1.2.,2013-01-03 16:30:00,
2013-01-03 11:35:00,12.2,2.1,30.19,SSW,202,0.0,3.0,63,0.00,,,0.00,HR-IXPWINDi_r2_v1.2.,2013-01-03 16:35:00,
2013-01-03 11:40:00,12.1,2.0,30.19,West,266,0.0,3.0,63,0.00,,,0.00,HR-IXPWINDi_r2_v1.2.,2013-01-03 16:40:00,
2013-01-03 11:45:00,12.4,2.3,30.18,SW,216,1.0,2.0,63,0.00,,,0.00,HR-IXPWINDi_r2_v1.2.,2013-01-03 16:45:00,
2013-01-03 11:50:00,12.8,2.7,30.18,South,190,0.0,2.0,63,0.00,,,0.00,HR-IXPWINDi_r2_v1.2.,2013-01-03 16:50:00,
2013-01-03 11:56:00,13.6,3.8,30.17,East,97,1.0,2.0,64,0.00,,,0.00,HR-IXPWINDi_r2_v1.2.,2013-01-03 16:56:00,
2013-01-03 12:01:00,14.4,3.8,30.17,SE,129,0.0,2.0,62,0.00,,,0.00,HR-IXPWINDi_r2_v1.2.,2013-01-03 17:01:00,
2013-01-03 12:06:00,15.7,4.4,30.17,SE,129,0.0,2.0,60,0.00,,,0.00,HR-IXPWINDi_r2_v1.2.,2013-01-03 17:06:00,
2013-01-03 12:11:00,15.4,3.7,30.17,West,266,0.0,2.0,59,0.00,,,0.00,HR-IXPWINDi_r2_v1.2.,2013-01-03 17:11:00,
2013-01-03 12:16:00,15.7,4.4,30.16,South,188,0.0,2.0,60,0.00,,,0.00,HR-IXPWINDi_r2_v1.2.,2013-01-03 17:16:00,
2013-01-03 12:22:00,16.0,4.3,30.16,WNW,290,1.0,2.0,59,0.00,,,0.00,HR-IXPWINDi_r2_v1.2.,2013-01-03 17:22:00,
2013-01-03 12:27:00,15.8,4.5,30.15,West,262,0.0,3.0,60,0.00,,,0.00,HR-IXPWINDi_r2_v1.2.,2013-01-03 17:27:00,
2013-01-03 12:32:00,16.3,4.9,30.15,SW,218,0.0,3.0,60,0.00,,,0.00,HR-IXPWINDi_r2_v1.2.,2013-01-03 17:32:00,
2013-01-03 12:37:00,17.1,4.9,30.14,West,261,0.0,2.0,58,0.00,,,0.00,HR-IXPWINDi_r2_v1.2.,2013-01-03 17:37:00,
2013-01-03 12:42:00,17.9,5.7,30.14,SSW,205,0.0,1.0,58,0.00,,,0.00,HR-IXPWINDi_r2_v1.2.,2013-01-03 17:42:00,
2013-01-03 12:48:00,19.1,5.7,30.13,SW,225,1.0,1.0,55,0.00,,,0.00,HR-IXPWINDi_r2_v1.2.,2013-01-03 17:48:00,
2013-01-03 12:53:00,18.4,5.0,30.13,NW,324,1.0,2.0,55,0.00,,,0.00,HR-IXPWINDi_r2_v1.2.,2013-01-03 17:53:00,
2013-01-03 12:58:00,19.4,6.3,30.13,South,191,0.0,2.0,56,0.00,,,0.00,HR-IXPWINDi_r2_v1.2.,2013-01-03 17:58:00,
2013-01-03 13:03:00,20.2,6.7,30.13,SSW,195,0.0,2.0,55,0.00,,,0.00,HR-IXPWINDi_r2_v1.2.,2013-01-03 18:03:00,
2013-01-03 13:08:00,19.8,5.9,30.12,North,355,0.0,2.0,54,0.00,,,0.00,HR-IXPWINDi_r2_v1.2.,2013-01-03 18:08:00,
2013-01-03 13:14:00,19.7,6.2,30.12,NNW,344,0.0,2.0,55,0.00,,,0.00,HR-IXPWINDi_r2_v1.2.,2013-01-03 18:14:00,
2013-01-03 13:19:00,20.2,7.1,30.11,SW,223,0.0,2.0,56,0.00,,,0.00,HR-IXPWINDi_r2_v1.2.,2013-01-03 18:19:00,
2013-01-03 13:24:00,21.1,7.1,30.11,SW,218,1.0,2.0,54,0.00,,,0.00,HR-IXPWINDi_r2_v1.2.,2013-01-03 18:24:00,
2013-01-03 13:29:00,20.9,6.9,30.12,SW,231,1.0,2.0,54,0.00,,,0.00,HR-IXPWINDi_r2_v1.2.,2013-01-03 18:29:00,
2013-01-03 13:34:00,21.6,7.2,30.11,SSW,204,1.0,2.0,53,0.00,,,0.00,HR-IXPWINDi_r2_v1.2.,2013-01-03 18:34:00,
2013-01-03 13:40:00,21.4,6.6,30.11,South,173,1.0,4.0,52,0.00,,,0.00,HR-IXPWINDi_r2_v1.2.,2013-01-03 18:40:00,
2013-01-03 13:45:00,21.6,6.8,30.10,South,172,3.0,4.0,52,0.00,,,0.00,HR-IXPWINDi_r2_v1.2.,2013-01-03 18:45:00,
2013-01-03 13:50:00,21.6,6.3,30.10,South,190,0.0,4.0,51,0.00,,,0.00,HR-IXPWINDi_r2_v1.2.,2013-01-03 18:50:00,
2013-01-03 13:55:00,22.2,7.3,30.10,SSW,204,0.0,4.0,52,0.00,,,0.00,HR-IXPWINDi_r2_v1.2.,2013-01-03 18:55:00,
2013-01-03 14:00:00,22.4,6.6,30.10,SSW,204,2.0,4.0,50,0.00,,,0.00,HR-IXPWINDi_r2_v1.2.,2013-01-03 19:00:00,
2013-01-03 14:05:00,22.0,7.1,30.10,SSW,197,2.0,4.0,52,0.00,,,0.00,HR-IXPWINDi_r2_v1.2.,2013-01-03 19:05:00,
2013-01-03 14:11:00,22.0,8.0,30.10,South,180,2.0,4.0,54,0.00,,,0.00,HR-IXPWINDi_r2_v1.2.,2013-01-03 19:11:00,
2013-01-03 14:16:00,22.5,7.6,30.10,SSW,200,2.0,3.0,52,0.00,,,0.00,HR-IXPWINDi_r2_v1.2.,2013-01-03 19:16:00,
2013-01-03 14:52:00,22.7,8.2,30.10,SSW,209,1.0,5.0,53,0.00,,,0.00,HR-IXPWINDi_r2_v1.2.,2013-01-03 19:52:00,
2013-01-03 14:57:00,22.5,8.0,30.09,SSW,206,1.0,5.0,53,0.00,,,0.00,HR-IXPWINDi_r2_v1.2.,2013-01-03 19:57:00,
2013-01-03 15:03:00,22.5,8.4,30.09,SSW,206,0.0,3.0,54,0.00,,,0.00,HR-IXPWINDi_r2_v1.2.,2013-01-03 20:03:00,
2013-01-03 15:08:00,22.2,8.1,30.09,WSW,247,0.0,1.0,54,0.00,,,0.00,HR-IXPWINDi_r2_v1.2.,2013-01-03 20:08:00,
2013-01-03 15:13:00,22.2,8.1,30.09,WSW,240,0.0,2.0,54,0.00,,,0.00,HR-IXPWINDi_r2_v1.2.,2013-01-03 20:13:00,
2013-01-03 15:19:00,22.0,8.0,30.09,SW,222,0.0,2.0,54,0.00,,,0.00,HR-IXPWINDi_r2_v1.2.,2013-01-03 20:19:00,
2013-01-03 15:24:00,21.2,6.8,30.09,North,354,1.0,2.0,53,0.00,,,0.00,HR-IXPWINDi_r2_v1.2.,2013-01-03 20:24:00,
2013-01-03 15:29:00,20.6,6.2,30.09,North,351,1.0,2.0,53,0.00,,,0.00,HR-IXPWINDi_r2_v1.2.,2013-01-03 20:29:00,
2013-01-03 15:34:00,20.2,6.3,30.09,North,351,1.0,2.0,54,0.00,,,0.00,HR-IXPWINDi_r2_v1.2.,2013-01-03 20:34:00,
2013-01-03 15:39:00,20.0,6.5,30.10,North,349,0.0,3.0,55,0.00,,,0.00,HR-IXPWINDi_r2_v1.2.,2013-01-03 20:39:00,
2013-01-03 15:44:00,19.8,6.3,30.10,North,349,0.0,3.0,55,0.00,,,0.00,HR-IXPWINDi_r2_v1.2.,2013-01-03 20:44:00,
2013-01-03 15:49:00,19.7,6.2,30.09,North,355,1.0,2.0,55,0.00,,,0.00,HR-IXPWINDi_r2_v1.2.,2013-01-03 20:49:00,
2013-01-03 15:55:00,19.5,6.0,30.09,NNW,335,1.0,2.0,55,0.00,,,0.00,HR-IXPWINDi_r2_v1.2.,2013-01-03 20:55:00,
2013-01-03 16:00:00,19.4,5.9,30.09,NNW,337,0.0,2.0,55,0.00,,,0.00,HR-IXPWINDi_r2_v1.2.,2013-01-03 21:00:00,
2013-01-03 16:05:00,19.3,6.6,30.09,NNW,337,0.0,2.0,57,0.00,,,0.00,HR-IXPWINDi_r2_v1.2.,2013-01-03 21:05:00,
2013-01-03 16:10:00,19.2,6.9,30.09,NNW,337,0.0,0.0,58,0.00,,,0.00,HR-IXPWINDi_r2_v1.2.,2013-01-03 21:10:00,
2013-01-03 16:15:00,19.0,7.1,30.09,North,355,1.0,2.0,59,0.00,,,0.00,HR-IXPWINDi_r2_v1.2.,2013-01-03 21:15:00,
2013-01-03 16:20:00,19.0,6.7,30.09,North,355,0.0,2.0,58,0.00,,,0.00,HR-IXPWINDi_r2_v1.2.,2013-01-03 21:20:00,
2013-01-03 16:25:00,18.9,6.6,30.09,North,355,0.0,2.0,58,0.00,,,0.00,HR-IXPWINDi_r2_v1.2.,2013-01-03 21:25:00,
2013-01-03 16:31:00,18.7,6.4,30.09,North,355,0.0,1.0,58,0.00,,,0.00,HR-IXPWINDi_r2_v1.2.,2013-01-03 21:31:00,
2013-01-03 16:36:00,18.4,6.5,30.09,North,355,0.0,1.0,59,0.00,,,0.00,HR-IXPWINDi_r2_v1.2.,2013-01-03 21:36:00,
2013-01-03 16:41:00,17.9,6.4,30.09,North,355,0.0,0.0,60,0.00,,,0.00,HR-IXPWINDi_r2_v1.2.,2013-01-03 21:41:00,
2013-01-03 16:46:00,17.4,6.0,30.09,North,355,0.0,0.0,60,0.00,,,0.00,HR-IXPWINDi_r2_v1.2.,2013-01-03 21:46:00,
2013-01-03 16:51:00,17.0,5.9,30.09,North,355,0.0,0.0,61,0.00,,,0.00,HR-IXPWINDi_r2_v1.2.,2013-01-03 21:51:00,
2013-01-03 16:57:00,16.8,6.1,30.09,North,355,0.0,0.0,62,0.00,,,0.00,HR-IXPWINDi_r2_v1.2.,2013-01-03 21:57:00,
2013-01-03 17:02:00,16.7,6.0,30.09,North,355,0.0,0.0,62,0.00,,,0.00,HR-IXPWINDi_r2_v1.2.,2013-01-03 22:02:00,
2013-01-03 17:07:00,16.3,6.3,30.09,North,355,0.0,0.0,64,0.00,,,0.00,HR-IXPWINDi_r2_v1.2.,2013-01-03 22:07:00,
2013-01-03 17:12:00,15.9,5.9,30.09,North,355,0.0,0.0,64,0.00,,,0.00,HR-IXPWINDi_r2_v1.2.,2013-01-03 22:12:00,
2013-01-03 17:17:00,15.8,6.2,30.09,North,355,0.0,0.0,65,0.00,,,0.00,HR-IXPWINDi_r2_v1.2.,2013-01-03 22:17:00,
2013-01-03 17:23:00,15.7,6.4,30.09,North,355,0.0,0.0,66,0.00,,,0.00,HR-IXPWINDi_r2_v1.2.,2013-01-03 22:23:00,
2013-01-03 17:28:00,15.8,6.9,30.09,North,355,0.0,0.0,67,0.00,,,0.00,HR-IXPWINDi_r2_v1.2.,2013-01-03 22:28:00,
2013-01-03 17:33:00,15.9,7.3,30.09,North,355,0.0,0.0,68,0.00,,,0.00,HR-IXPWINDi_r2_v1.2.,2013-01-03 22:33:00,
2013-01-03 17:38:00,15.9,7.0,30.09,North,354,0.0,0.0,67,0.00,,,0.00,HR-IXPWINDi_r2_v1.2.,2013-01-03 22:38:00,
2013-01-03 17:44:00,15.8,6.9,30.09,North,355,0.0,0.0,67,0.00,,,0.00,HR-IXPWINDi_r2_v1.2.,2013-01-03 22:44:00,
2013-01-03 17:49:00,15.7,7.4,30.09,North,355,0.0,0.0,69,0.00,,,0.00,HR-IXPWINDi_r2_v1.2.,2013-01-03 22:49:00,
2013-01-03 17:54:00,15.6,7.3,30.10,North,355,0.0,0.0,69,0.00,,,0.00,HR-IXPWINDi_r2_v1.2.,2013-01-03 22:54:00,
2013-01-03 17:59:00,15.6,7.3,30.10,North,355,0.0,0.0,69,0.00,,,0.00,HR-IXPWINDi_r2_v1.2.,2013-01-03 22:59:00,
2013-01-03 18:05:00,15.5,7.2,30.09,North,355,0.0,0.0,69,0.00,,,0.00,HR-IXPWINDi_r2_v1.2.,2013-01-03 23:05:00,
2013-01-03 18:10:00,15.4,6.8,30.09,North,354,0.0,0.0,68,0.00,,,0.00,HR-IXPWINDi_r2_v1.2.,2013-01-03 23:10:00,
2013-01-03 18:15:00,15.3,6.7,30.09,North,355,0.0,0.0,68,0.00,,,0.00,HR-IXPWINDi_r2_v1.2.,2013-01-03 23:15:00,
2013-01-03 18:20:00,15.3,7.0,30.09,North,355,0.0,0.0,69,0.00,,,0.00,HR-IXPWINDi_r2_v1.2.,2013-01-03 23:20:00,
2013-01-03 18:25:00,15.3,7.3,30.09,North,355,0.0,0.0,70,0.00,,,0.00,HR-IXPWINDi_r2_v1.2.,2013-01-03 23:25:00,
2013-01-03 18:30:00,15.3,7.7,30.09,North,355,0.0,0.0,71,0.00,,,0.00,HR-IXPWINDi_r2_v1.2.,2013-01-03 23:30:00,
2013-01-03 18:36:00,15.5,7.2,30.09,North,355,0.0,0.0,69,0.00,,,0.00,HR-IXPWINDi_r2_v1.2.,2013-01-03 23:36:00,
2013-01-03 18:41:00,15.6,7.3,30.09,North,355,0.0,0.0,69,0.00,,,0.00,HR-IXPWINDi_r2_v1.2.,2013-01-03 23:41:00,
2013-01-03 18:46:00,15.7,7.7,30.09,North,355,0.0,0.0,70,0.00,,,0.00,HR-IXPWINDi_r2_v1.2.,2013-01-03 23:46:00,
2013-01-03 18:51:00,15.8,7.8,30.09,North,355,1.0,1.0,70,0.00,,,0.00,HR-IXPWINDi_r2_v1.2.,2013-01-03 23:51:00,
2013-01-03 18:56:00,16.0,7.7,30.09,South,188,0.0,1.0,69,0.00,,,0.00,HR-IXPWINDi_r2_v1.2.,2013-01-03 23:56:00,
2013-01-03 19:02:00,16.1,7.8,30.09,South,188,0.0,1.0,69,0.00,,,0.00,HR-IXPWINDi_r2_v1.2.,2013-01-04 00:02:00,
2013-01-03 19:07:00,16.2,8.2,30.09,South,188,0.0,1.0,70,0.00,,,0.00,HR-IXPWINDi_r2_v1.2.,2013-01-04 00:07:00,
2013-01-03 19:12:00,16.4,8.7,30.09,South,188,0.0,1.0,71,0.00,,,0.00,HR-IXPWINDi_r2_v1.2.,2013-01-04 00:12:00,
2013-01-03 19:17:00,16.5,9.1,30.09,South,188,0.0,0.0,72,0.00,,,0.00,HR-IXPWINDi_r2_v1.2.,2013-01-04 00:17:00,
2013-01-03 19:23:00,16.5,8.8,30.09,South,188,0.0,0.0,71,0.00,,,0.00,HR-IXPWINDi_r2_v1.2.,2013-01-04 00:23:00,
2013-01-03 19:28:00,16.6,8.6,30.09,South,188,1.0,1.0,70,0.00,,,0.00,HR-IXPWINDi_r2_v1.2.,2013-01-04 00:28:00,
2013-01-03 19:33:00,16.6,9.2,30.09,South,188,0.0,1.0,72,0.00,,,0.00,HR-IXPWINDi_r2_v1.2.,2013-01-04 00:33:00,
2013-01-03 19:38:00,16.6,8.9,30.09,SSW,193,2.0,2.0,71,0.00,,,0.00,HR-IXPWINDi_r2_v1.2.,2013-01-04 00:38:00,
2013-01-03 19:43:00,16.4,8.7,30.09,South,186,1.0,2.0,71,0.00,,,0.00,HR-IXPWINDi_r2_v1.2.,2013-01-04 00:43:00,
2013-01-03 19:49:00,16.3,8.6,30.09,South,185,2.0,3.0,71,0.00,,,0.00,HR-IXPWINDi_r2_v1.2.,2013-01-04 00:49:00,
2013-01-03 19:54:00,16.3,8.9,30.09,SSW,198,1.0,3.0,72,0.00,,,0.00,HR-IXPWINDi_r2_v1.2.,2013-01-04 00:54:00,
2013-01-03 19:59:00,16.4,9.0,30.09,SSW,206,0.0,3.0,72,0.00,,,0.00,HR-IXPWINDi_r2_v1.2.,2013-01-04 00:59:00,
2013-01-03 20:04:00,16.6,9.2,30.09,SSW,202,0.0,3.0,72,0.00,,,0.00,HR-IXPWINDi_r2_v1.2.,2013-01-04 01:04:00,
2013-01-03 20:10:00,16.6,9.2,30.09,SE,132,0.0,3.0,72,0.00,,,0.00,HR-IXPWINDi_r2_v1.2.,2013-01-04 01:10:00,
2013-01-03 20:15:00,16.6,8.9,30.09,SE,125,0.0,1.0,71,0.00,,,0.00,HR-IXPWINDi_r2_v1.2.,2013-01-04 01:15:00,
2013-01-03 20:20:00,16.6,9.2,30.09,East,90,0.0,1.0,72,0.00,,,0.00,HR-IXPWINDi_r2_v1.2.,2013-01-04 01:20:00,
2013-01-03 20:25:00,16.5,9.1,30.09,East,89,0.0,1.0,72,0.00,,,0.00,HR-IXPWINDi_r2_v1.2.,2013-01-04 01:25:00,
2013-01-03 20:30:00,16.4,9.3,30.09,East,88,0.0,1.0,73,0.00,,,0.00,HR-IXPWINDi_r2_v1.2.,2013-01-04 01:30:00,
2013-01-03 20:36:00,16.3,9.2,30.09,South,183,0.0,1.0,73,0.00,,,0.00,HR-IXPWINDi_r2_v1.2.,2013-01-04 01:36:00,
2013-01-03 20:41:00,16.2,9.1,30.09,South,183,0.0,1.0,73,0.00,,,0.00,HR-IXPWINDi_r2_v1.2.,2013-01-04 01:41:00,
2013-01-03 20:46:00,16.2,9.1,30.09,North,358,0.0,1.0,73,0.00,,,0.00,HR-IXPWINDi_r2_v1.2.,2013-01-04 01:46:00,
2013-01-03 20:51:00,16.2,9.1,30.09,North,356,1.0,2.0,73,0.00,,,0.00,HR-IXPWINDi_r2_v1.2.,2013-01-04 01:51:00,
2013-01-03 20:57:00,16.3,9.2,30.09,NNW,337,0.0,2.0,73,0.00,,,0.00,HR-IXPWINDi_r2_v1.2.,2013-01-04 01:57:00,
2013-01-03 21:02:00,16.3,9.2,30.09,South,185,1.0,2.0,73,0.00,,,0.00,HR-IXPWINDi_r2_v1.2.,2013-01-04 02:02:00,
2013-01-03 21:07:00,16.3,9.8,30.09,South,191,1.0,2.0,75,0.00,,,0.00,HR-IXPWINDi_r2_v1.2.,2013-01-04 02:07:00,
2013-01-03 21:12:00,16.1,9.6,30.09,South,191,0.0,2.0,75,0.00,,,0.00,HR-IXPWINDi_r2_v1.2.,2013-01-04 02:12:00,
2013-01-03 21:18:00,16.1,9.6,30.08,South,191,0.0,1.0,75,0.00,,,0.00,HR-IXPWINDi_r2_v1.2.,2013-01-04 02:18:00,
2013-01-03 21:23:00,16.2,10.0,30.09,South,191,0.0,0.0,76,0.00,,,0.00,HR-IXPWINDi_r2_v1.2.,2013-01-04 02:23:00,
2013-01-03 21:28:00,16.4,9.9,30.09,South,191,0.0,0.0,75,0.00,,,0.00,HR-IXPWINDi_r2_v1.2.,2013-01-04 02:28:00,
2013-01-03 21:33:00,16.6,9.8,30.09,South,191,0.0,0.0,74,0.00,,,0.00,HR-IXPWINDi_r2_v1.2.,2013-01-04 02:33:00,
2013-01-03 21:38:00,16.7,9.6,30.08,South,191,0.0,0.0,73,0.00,,,0.00,HR-IXPWINDi_r2_v1.2.,2013-01-04 02:38:00,
2013-01-03 21:43:00,16.9,9.8,30.08,South,191,0.0,0.0,73,0.00,,,0.00,HR-IXPWINDi_r2_v1.2.,2013-01-04 02:43:00,
2013-01-03 21:48:00,17.0,9.9,30.09,South,191,0.0,0.0,73,0.00,,,0.00,HR-IXPWINDi_r2_v1.2.,2013-01-04 02:48:00,
2013-01-03 21:54:00,17.0,10.2,30.08,South,191,0.0,0.0,74,0.00,,,0.00,HR-IXPWINDi_r2_v1.2.,2013-01-04 02:54:00,
2013-01-03 21:59:00,17.0,10.2,30.08,South,191,0.0,0.0,74,0.00,,,0.00,HR-IXPWINDi_r2_v1.2.,2013-01-04 02:59:00,
2013-01-03 22:04:00,16.8,10.6,30.08,South,191,0.0,0.0,76,0.00,,,0.00,HR-IXPWINDi_r2_v1.2.,2013-01-04 03:04:00,
2013-01-03 22:09:00,16.6,10.1,30.08,South,191,0.0,1.0,75,0.00,,,0.00,HR-IXPWINDi_r2_v1.2.,2013-01-04 03:09:00,
2013-01-03 22:14:00,16.7,9.9,30.08,South,191,1.0,2.0,74,0.00,,,0.00,HR-IXPWINDi_r2_v1.2.,2013-01-04 03:14:00,
2013-01-03 22:19:00,16.8,9.7,30.08,South,189,1.0,2.0,73,0.00,,,0.00,HR-IXPWINDi_r2_v1.2.,2013-01-04 03:19:00,
2013-01-03 22:24:00,16.9,9.8,30.08,South,169,0.0,2.0,73,0.00,,,0.00,HR-IXPWINDi_r2_v1.2.,2013-01-04 03:24:00,
2013-01-03 22:30:00,16.9,10.1,30.08,SSE,163,0.0,3.0,74,0.00,,,0.00,HR-IXPWINDi_r2_v1.2.,2013-01-04 03:30:00,
2013-01-03 22:35:00,16.9,10.1,30.08,SSE,166,2.0,3.0,74,0.00,,,0.00,HR-IXPWINDi_r2_v1.2.,2013-01-04 03:35:00,
2013-01-03 22:40:00,17.1,10.0,30.08,South,177,1.0,2.0,73,0.00,,,0.00,HR-IXPWINDi_r2_v1.2.,2013-01-04 03:40:00,
2013-01-03 22:45:00,17.3,10.2,30.08,South,184,2.0,2.0,73,0.00,,,0.00,HR-IXPWINDi_r2_v1.2.,2013-01-04 03:45:00,
2013-01-03 22:50:00,17.4,10.3,30.08,South,186,2.0,3.0,73,0.00,,,0.00,HR-IXPWINDi_r2_v1.2.,2013-01-04 03:50:00,
2013-01-03 22:55:00,17.4,10.3,30.08,South,191,0.0,3.0,73,0.00,,,0.00,HR-IXPWINDi_r2_v1.2.,2013-01-04 03:55:00,
2013-01-03 23:00:00,17.8,11.0,30.08,SSW,201,2.0,3.0,74,0.00,,,0.00,HR-IXPWINDi_r2_v1.2.,2013-01-04 04:00:00,
2013-01-03 23:05:00,17.9,10.5,30.08,SSE,165,2.0,3.0,72,0.00,,,0.00,HR-IXPWINDi_r2_v1.2.,2013-01-04 04:05:00,
2013-01-03 23:11:00,18.2,10.4,30.08,South,184,1.0,3.0,71,0.00,,,0.00,HR-IXPWINDi_r2_v1.2.,2013-01-04 04:11:00,
2013-01-03 23:16:00,18.5,10.4,30.08,SSW,192,1.0,4.0,70,0.00,,,0.00,HR-IXPWINDi_r2_v1.2.,2013-01-04 04:16:00,
2013-01-03 23:21:00,18.5,10.7,30.08,South,184,0.0,4.0,71,0.00,,,0.00,HR-IXPWINDi_r2_v1.2.,2013-01-04 04:21:00,
2013-01-03 23:26:00,18.5,11.3,30.08,South,183,2.0,3.0,73,0.00,,,0.00,HR-IXPWINDi_r2_v1.2.,2013-01-04 04:26:00,
2013-01-03 23:31:00,18.6,11.7,30.08,SSW,202,1.0,3.0,74,0.00,,,0.00,HR-IXPWINDi_r2_v1.2.,2013-01-04 04:31:00,
2013-01-03 23:37:00,18.9,11.7,30.07,SSW,199,1.0,3.0,73,0.00,,,0.00,HR-IXPWINDi_r2_v1.2.,2013-01-04 04:37:00,
2013-01-03 23:42:00,19.1,12.2,30.07,SSW,198,2.0,3.0,74,0.00,,,0.00,HR-IXPWINDi_r2_v1.2.,2013-01-04 04:42:00,
2013-01-03 23:47:00,19.2,12.3,30.07,SSW,200,1.0,3.0,74,0.00,,,0.00,HR-IXPWINDi_r2_v1.2.,2013-01-04 04:47:00,
2013-01-03 23:52:00,19.7,12.5,30.07,South,188,1.0,3.0,73,0.00,,,0.00,HR-IXPWINDi_r2_v1.2.,2013-01-04 04:52:00,
2013-01-03 23:57:00,19.6,12.4,30.07,SSW,196,1.0,2.0,73,0.00,,,0.00,HR-IXPWINDi_r2_v1.2.,2013-01-04 04:57:00,